Location: �quirre
(50.4736°N, 2.2351°E)
Time: 08:24:11
(UTC+00:00)

Spot 1 - Pass Details

Date: 07 August 2020
Orbit: 577 x 776 km, 98.7° (Epoch: 26 September)

Event Time Altitude Azimuth Distance (km) Brightness Sun altitude
Exits shadow 01:06:43 59° 154° (SSE) 691 4.0 -21.5°
Maximum altitude 01:07:29 85° 76° (ENE) 601 3.9 -21.4°
Drops below altitude 10° 01:11:36 10° 346° (NNW) 1,909 7.4 -21.2°
Sets 01:13:44 0° 346° (NNW) 2,807 8.3 -21.1°
